Temp
-8 -8 -8 -7 -7 -7 -7 -7 -6 -5 -3 -3 -4 -4 -4 -4 -4 -4 -3 -3 -3 -2 -1 -0 -0 1 2 2 3 3 3 5 5 8 13 14 14 14
-9 -8 -8 -8 -8 -7 -7 -7 -7 -6 -5 -5 -5 -5 -5 -5 -5 -4 -4 -4 -4 -3 -2 -1 -0 0 1 2 2 3 3 4 5 7 8 13 14 13
-9 -9 -9 -9 -8 -8 -8 -8 -7 -7 -6 -6 -6 -5 -5 -5 -5 -5 -5 -4 -4 -3 -2 -2 -1 -0 1 2 2 2 3 4 4 6 5 7 12 14
-10 -10 -9 -9 -9 -8 -8 -8 -7 -7 -7 -7 -6 -6 -5 -5 -5 -5 -5 -4 -4 -3 -3 -2 -1 -1 0 1 1 1 1 2 2 2 4 4 7 11
-10 -10 -10 -9 -9 -9 -9 -8 -8 -7 -7 -7 -6 -6 -6 -6 -5 -5 -5 -4 -4 -3 -3 -2 -2 -1 -1 -0 0 1 1 2 2 3 3 3 6 9
-10 -10 -9 -9 -9 -9 -8 -8 -7 -7 -7 -7 -6 -6 -5 -5 -5 -5 -5 -4 -3 -3 -3 -3 -2 -2 -1 -1 0 -0 -0 0 0 1 1 2 4 6
-9 -9 -9 -8 -8 -7 -7 -7 -7 -6 -6 -6 -5 -5 -5 -4 -4 -4 -4 -4 -4 -3 -3 -3 -3 -2 -2 -2 -1 -1 -1 -0 -0 0 -0 1 2 6
-9 -9 -8 -8 -8 -8 -7 -7 -6 -6 -6 -6 -5 -5 -5 -5 -5 -5 -5 -4 -3 -4 -3 -3 -3 -3 -3 -3 -2 -2 -1 -1 -0 -0 -0 -0 1 2
-9 -9 -9 -8 -8 -8 -9 -8 -8 -7 -7 -6 -6 -6 -5 -5 -5 -5 -5 -5 -4 -4 -3 -3 -3 -3 -3 -3 -3 -2 -2 -1 -0 -0 -0 -0 0 1
-9 -9 -9 -9 -9 -9 -9 -8 -8 -7 -7 -7 -7 -6 -6 -6 -6 -5 -5 -5 -5 -5 -4 -4 -3 -3 -3 -3 -3 -2 -2 -1 -0 -0 -0 -0 -0 0
-10 -10 -10 -10 -9 -8 -8 -7 -7 -7 -7 -6 -5 -5 -4 -4 -4 -4 -4 -5 -4 -3 -3 -3 -3 -3 -3 -3 -2 -2 -2 -1 -1 -0 -0 -0 0 1
-10 -10 -9 -9 -8 -7 -7 -7 -7 -7 -6 -6 -6 -5 -5 -5 -5 -5 -5 -5 -4 -3 -3 -3 -3 -3 -3 -2 -2 -2 -2 -2 -1 -1 -1 -1 -1 -1
-10 -9 -9 -9 -8 -8 -7 -7 -7 -6 -6 -6 -6 -6 -6 -5 -5 -5 -5 -5 -5 -4 -4 -4 -4 -4 -4 -3 -3 -3 -3 -2 -2 -2 -1 -1 -1 -1
-10 -9 -9 -9 -8 -7 -7 -7 -6 -6 -6 -6 -6 -6 -6 -6 -6 -6 -6 -6 -6 -6 -5 -5 -5 -5 -4 -4 -3 -3 -3 -3 -3 -2 -2 -1 -1 -2
-10 -9 -9 -8 -8 -7 -7 -7 -7 -7 -7 -7 -7 -7 -7 -7 -7 -7 -7 -7 -7 -7 -7 -6 -6 -5 -5 -4 -4 -4 -3 -3 -3 -3 -2 -2 -2 -2
-10 -9 -9 -8 -8 -8 -8 -8 -8 -8 -8 -8 -7 -7 -8 -8 -8 -8 -8 -8 -8 -8 -7 -7 -7 -7 -6 -6 -5 -5 -4 -4 -3 -3 -2 -2 -2 -2
-11 -10 -9 -9 -9 -9 -9 -9 -9 -9 -9 -9 -9 -9 -9 -9 -8 -8 -8 -8 -8 -7 -7 -7 -7 -7 -7 -6 -6 -6 -5 -5 -4 -4 -3 -3 -3 -2
-10 -10 -12 -12 -11 -11 -10 -10 -10 -10 -10 -10 -10 -9 -9 -9 -9 -9 -9 -8 -8 -8 -7 -7 -7 -7 -7 -7 -6 -6 -6 -6 -5 -4 -4 -4 -3 -3
-13 -14 -14 -14 -13 -13 -12 -12 -12 -12 -11 -11 -11 -10 -10 -10 -9 -9 -9 -8 -8 -8 -7 -7 -7 -7 -7 -6 -5 -5 -5 -5 -5 -5 -5 -4 -4 -3
-14 -15 -15 -16 -15 -15 -15 -14 -14 -13 -13 -12 -12 -11 -11 -11 -10 -10 -10 -9 -9 -8 -8 -8 -8 -8 -7 -7 -6 -5 -5 -5 -5 -4 -4 -4 -4 -3
-15 -16 -16 -16 -16 -16 -15 -15 -14 -14 -14 -13 -12 -12 -11 -11 -11 -10 -10 -9 -8 -8 -7 -7 -7 -7 -7 -7 -7 -7 -7 -6 -6 -5 -5 -4 -4 -3
-16 -16 -16 -17 -17 -16 -16 -15 -15 -14 -14 -14 -13 -13 -12 -12 -11 -11 -10 -10 -9 -9 -8 -8 -8 -8 -7 -7 -7 -6 -6 -6 -6 -6 -6 -5 -5 -4
-16 -17 -17 -17 -17 -16 -16 -15 -15 -14 -14 -14 -13 -13 -13 -12 -12 -11 -10 -10 -10 -9 -9 -9 -8 -8 -8 -8 -7 -7 -7 -7 -6 -6 -6 -5 -5 -5
Height
875 873 872 870 869 868 867 866 864 856 850 846 845 842 838 835 832 828 824 820 816 813 809 806 804 802 799 796 794 791 788 786 779 779 786 791 795 799
870 868 867 866 864 862 862 860 859 856 849 845 842 839 836 830 826 823 819 814 810 806 803 799 796 794 792 789 787 785 782 779 778 770 775 779 783 787
865 863 861 860 858 857 856 855 852 851 844 839 837 834 830 825 821 818 813 809 804 800 796 793 789 786 784 782 781 777 774 773 774 768 770 765 771 773
858 857 855 855 852 851 850 848 846 844 841 833 831 828 825 822 816 809 807 803 798 794 790 786 783 780 778 775 772 769 765 766 767 763 762 760 756 760
852 850 849 849 846 845 845 843 840 838 835 830 822 822 818 815 810 805 799 795 792 788 784 780 776 773 770 767 764 764 761 761 751 754 750 749 744 746
846 845 843 842 839 839 838 836 833 830 826 822 815 811 809 807 804 800 792 788 784 781 777 774 769 766 763 759 757 754 751 746 749 745 747 742 740 737
839 837 835 834 832 831 829 826 825 822 819 814 809 804 800 797 796 793 788 784 773 774 768 765 762 759 756 753 750 747 745 742 739 734 735 732 729 730
830 828 826 825 824 823 821 819 818 813 809 807 802 797 791 790 788 786 782 778 768 765 760 755 756 749 746 743 740 737 735 731 729 731 721 722 721 718
822 820 818 817 816 814 812 810 807 804 801 798 793 788 784 781 779 776 772 769 762 754 754 744 746 740 738 734 731 728 726 725 720 716 715 711 710 707
815 813 811 807 806 806 802 798 793 790 788 787 784 778 774 770 769 765 760 755 751 746 747 735 732 728 727 723 721 719 716 712 711 708 705 700 698 698
806 804 802 798 795 796 793 788 783 778 777 775 771 767 764 760 757 753 748 744 736 732 732 728 719 718 716 712 709 707 706 702 700 696 695 688 686 684
797 794 792 790 787 785 782 779 773 769 767 763 758 755 751 746 746 743 740 736 731 722 721 720 713 712 704 699 697 695 693 690 687 685 681 680 678 675
787 784 782 781 778 775 773 769 764 761 755 751 747 741 740 737 735 733 730 727 721 714 709 710 705 700 697 688 687 685 684 680 677 674 671 669 667 668
777 775 773 771 768 765 761 758 754 749 744 741 738 734 731 727 723 721 718 715 712 707 697 700 695 692 687 679 674 674 671 669 668 665 662 658 658 657
769 767 764 761 757 753 750 747 745 740 738 734 730 725 722 718 714 710 706 703 699 693 686 686 686 681 678 669 662 659 658 655 655 653 652 650 648 647
761 758 754 751 748 745 742 740 738 734 731 726 722 717 713 709 705 701 697 692 687 679 675 674 674 671 664 660 657 649 648 644 643 642 641 638 636 635
751 748 745 743 740 739 736 733 730 726 722 718 713 709 704 699 694 690 686 681 676 668 662 661 660 656 651 648 643 638 635 633 631 630 631 625 624 624
743 741 740 739 737 733 729 725 722 718 713 709 704 700 694 689 683 679 675 670 663 656 651 648 647 643 637 629 631 627 626 622 619 618 617 614 607 603
738 736 735 732 729 725 722 718 713 708 705 700 695 689 684 678 673 668 662 657 649 643 637 636 634 633 624 611 610 612 607 605 605 603 601 599 595 589
733 732 729 725 721 717 713 709 704 699 694 690 684 678 672 667 661 655 649 643 636 628 623 621 619 618 611 598 589 590 595 593 592 588 586 585 583 583
728 725 721 717 712 709 704 700 696 690 685 678 672 666 660 655 647 641 634 628 621 613 605 601 597 596 592 588 579 572 576 578 577 575 573 573 570 569
720 716 712 708 704 700 695 690 685 678 672 666 659 652 645 640 632 625 618 611 603 595 587 583 581 580 576 570 558 556 556 559 558 558 558 557 558 551
712 708 703 699 695 690 685 680 674 667 660 652 645 636 630 622 614 607 599 592 584 576 571 564 562 561 553 550 545 542 541 542 543 542 538 539 538 537
Wind_Speed
15 15 14 14 13 13 14 15 16 10 11 13 14 23 28 28 29 31 29 30 32 33 32 32 33 30 31 30 30 32 34 39 40 20 45 58 56 53
16 16 15 15 17 15 16 16 16 19 10 20 25 26 28 31 31 30 30 32 32 30 31 32 32 32 32 30 30 28 31 30 30 25 25 50 60 57
17 17 20 17 18 18 16 17 20 19 22 27 26 26 27 31 33 30 32 31 31 29 30 32 33 33 31 29 27 24 25 28 29 28 32 23 40 61
20 18 20 17 19 19 19 21 21 22 24 28 26 27 28 28 32 38 33 31 30 30 32 32 32 32 30 32 32 32 31 32 33 34 46 36 33 37
20 20 19 18 21 20 20 22 23 23 24 26 28 28 28 28 31 33 35 31 29 29 31 30 29 32 34 32 31 30 23 23 23 26 27 39 40 39
20 21 21 21 23 22 23 25 27 28 28 26 30 29 28 28 28 28 32 31 31 31 31 33 34 32 29 27 23 25 28 28 29 29 32 33 44 42
23 23 24 24 25 27 28 27 25 23 27 29 28 29 27 25 25 26 28 33 40 33 31 30 32 29 33 32 35 37 35 35 36 35 35 34 33 45
28 26 26 25 26 29 31 30 32 33 28 30 29 28 31 30 31 29 29 26 22 35 25 27 28 33 34 33 34 35 35 36 36 37 33 35 35 36
27 26 28 29 26 28 31 32 33 34 35 35 34 34 33 34 32 31 31 29 32 40 34 33 30 32 35 36 35 36 35 33 34 35 35 35 35 37
28 28 29 30 30 27 30 32 33 34 35 33 35 39 40 41 36 38 38 38 38 39 35 30 33 32 32 34 32 31 33 33 34 37 42 41 40 39
29 29 29 30 30 29 31 33 35 37 37 37 38 40 41 44 43 42 34 29 25 31 33 29 38 31 29 32 34 35 37 40 43 43 38 26 34 35
27 28 27 29 31 31 33 32 33 33 32 35 37 39 42 44 39 32 32 29 30 28 34 28 31 29 24 29 31 33 32 32 31 30 29 30 30 30
27 27 27 28 29 32 35 35 34 37 38 39 38 27 23 29 29 28 31 32 32 33 39 34 32 32 30 31 29 32 32 34 34 37 37 36 34 31
29 28 28 30 33 32 34 36 38 39 33 28 26 28 28 30 31 30 30 32 34 37 45 37 29 31 29 28 24 32 33 32 32 33 34 34 33 34
28 28 30 33 35 34 31 35 34 26 25 26 26 27 28 30 31 32 32 33 35 38 44 40 37 39 36 33 26 28 30 33 31 33 33 33 33 34
28 29 30 32 31 31 25 23 25 24 25 26 27 29 30 29 30 30 30 30 31 34 36 35 34 37 36 37 34 35 36 32 35 34 35 36 34 28
32 29 21 23 21 20 23 24 24 25 25 26 26 27 28 29 29 30 29 30 29 30 32 32 31 35 38 37 33 35 34 35 36 35 30 30 32 35
23 16 10 17 20 22 23 24 25 26 26 26 26 27 28 29 29 29 29 29 29 30 31 32 30 30 32 37 40 35 34 35 35 34 33 31 35 37
16 20 19 19 22 23 23 24 25 28 28 28 29 29 30 30 32 29 30 30 30 32 33 32 29 25 15 18 31 34 35 35 34 33 34 34 34 40
23 21 22 23 23 23 24 24 27 29 29 29 30 30 31 31 31 30 31 31 31 33 31 31 30 29 20 22 21 34 32 33 30 31 32 34 36 38
24 24 24 25 26 25 26 27 28 31 31 32 32 33 34 32 33 34 34 39 40 35 25 29 37 43 43 40 28 29 36 40 43 39 35 29 27 26
26 26 28 27 27 27 29 29 30 32 32 32 33 34 35 34 35 36 36 35 35 36 37 41 41 38 36 31 20 27 33 33 37 45 50 47 27 15
28 28 29 28 28 29 30 30 31 33 35 36 37 38 38 37 39 39 39 40 40 39 39 37 39 37 37 37 35 26 32 32 32 32 36 44 49 54
Wind_Direction
290 289 284 284 281 282 280 280 287 298 302 303 301 311 312 314 312 314 313 311 311 310 310 309 309 308 307 306 304 304 303 299 305 324 236 227 226 224
289 286 284 284 286 284 282 281 277 279 283 294 297 301 305 306 309 308 307 308 307 306 305 306 305 305 304 302 302 299 303 307 304 305 317 230 227 224
286 285 285 285 284 284 283 281 281 280 282 288 293 297 298 302 304 304 305 304 303 302 302 302 302 302 301 301 299 298 295 286 292 291 302 320 242 225
283 281 281 284 281 282 282 280 279 281 282 286 292 295 295 296 297 299 301 300 298 299 300 300 299 297 296 296 297 296 295 288 285 286 287 288 296 248
279 278 278 279 279 279 280 280 280 280 279 278 285 290 288 291 292 293 297 296 295 297 299 298 298 296 295 294 293 290 293 289 294 285 283 289 284 277
272 272 274 272 275 279 279 276 276 276 275 276 282 286 287 288 285 283 288 296 296 297 293 292 294 293 289 293 291 295 300 302 293 291 285 285 283 287
276 275 275 273 274 275 273 276 275 273 277 277 279 286 285 287 285 288 286 291 294 293 289 285 287 284 284 280 283 285 284 283 285 284 283 285 287 271
276 276 276 275 276 277 277 275 273 273 277 280 279 279 283 284 285 284 282 284 286 292 289 283 284 282 283 280 281 283 283 283 282 278 279 278 276 275
274 276 277 276 275 278 279 278 275 274 271 275 276 275 279 279 280 280 276 272 271 277 285 283 281 277 280 282 281 283 283 281 281 283 280 276 275 271
275 274 273 276 278 278 282 281 279 276 273 271 267 268 269 274 271 268 268 271 271 271 273 273 279 273 277 277 278 278 280 281 282 284 282 275 272 268
274 273 272 275 277 281 278 275 276 275 277 278 278 279 278 279 279 279 275 273 272 271 269 268 277 277 275 273 274 274 275 278 281 280 274 288 271 266
274 272 271 272 278 279 279 279 278 277 282 282 279 276 275 274 276 278 282 279 279 279 275 270 273 275 279 271 271 272 273 273 278 270 278 284 287 284
271 271 271 276 277 281 280 278 276 278 277 279 277 283 290 288 284 280 274 270 271 272 275 273 274 275 267 275 272 269 270 272 272 275 278 277 277 277
264 271 276 280 282 279 277 277 278 282 287 291 290 289 287 285 284 282 278 275 271 271 275 274 272 269 270 271 270 271 267 265 267 267 271 273 272 272
273 273 274 278 281 284 283 283 283 291 292 290 285 283 281 282 283 282 279 276 273 269 269 271 267 271 269 273 273 262 263 265 261 261 263 263 261 269
267 268 273 276 279 286 291 291 292 288 283 280 279 281 282 281 278 277 276 276 273 273 271 269 266 265 265 265 269 269 266 265 267 263 261 260 255 256
266 266 276 286 284 286 292 292 288 286 282 278 277 279 279 278 276 277 274 272 267 271 274 273 267 263 261 262 263 262 264 264 263 264 262 262 260 260
292 295 306 301 293 293 293 289 286 284 281 281 278 277 276 277 278 278 274 269 267 268 269 270 270 269 267 262 253 262 260 260 261 261 260 260 266 263
327 315 305 299 292 288 285 285 283 285 287 281 277 276 276 276 278 277 275 272 269 268 266 267 264 260 264 265 266 250 251 251 254 251 247 246 250 259
317 306 295 291 286 283 283 281 284 284 283 280 277 275 274 274 275 272 270 268 268 268 268 264 257 252 249 255 262 261 252 253 251 252 252 251 253 259
301 295 293 288 284 282 281 280 280 280 282 280 277 275 274 273 271 270 269 269 269 267 264 260 255 256 256 261 262 260 256 249 247 248 252 254 258 262
305 298 298 291 284 281 281 281 281 281 282 280 277 275 273 271 269 268 266 265 264 263 263 264 266 263 257 251 255 258 258 253 249 246 244 246 247 247
307 301 298 291 287 282 281 281 280 280 280 280 278 276 274 272 270 268 267 265 264 264 264 264 260 255 252 251 253 256 255 253 247 243 242 245 247 249